1498276800.81,58393,17.44,73952.3,6.61,-17.93,-17.73,0,*76
1498276802.09,58394,17.44,73952.5,6.61,-17.79,-17.45,0,*70
1498276803.33,58395,17.44,73956.5,6.61,-17.59,-17.31,0,*70
1498276804.58,58396,17.5,73962.8,6.63,-17.55,-17.21,0,*7C
1498276805.83,58397,17.44,73958.3,6.61,-16.97,-16.51,0,*76
1498276807.09,58398,17.44,73960.0,6.63,-16.69,-16.09,0,*77
1498276808.32,58399,17.44,73962.5,6.63,-16.51,-16.03,0,*77
1498276809.54,58400,17.44,73960.5,6.63,-16.51,-16.03,0,*70
1498276810.82,58401,17.5,73968.5,6.65,-16.51,-16.09,0,*7D
1498276812.03,58402,17.44,73968.8,6.67,-16.41,-15.99,0,*77
1498276813.26,58403,17.44,73956.8,6.69,-17.35,-16.83,0,*72
1498276814.53,58404,17.44,73958.8,6.69,-17.63,-17.17,0,*7A
1498276815.75,58405,17.44,73948.0,6.69,-17.35,-16.89,0,*7E
1498276817.03,58406,17.5,73942.3,6.69,-17.59,-17.11,0,*77
1498276818.28,58407,17.44,73916.3,6.67,-17.59,-17.17,0,*7E
1498276819.48,58408,17.44,73928.0,6.67,-17.69,-17.31,0,*76
1498276820.73,58409,17.5,73944.3,6.69,-18.01,-17.35,0,*7C
1498276821.94,58410,17.5,73946.3,6.67,-17.35,-16.89,0,*74
1498276823.17,58411,17.44,73942.3,6.67,-17.69,-17.07,0,*7B
1498276824.4,58412,17.44,73952.8,6.67,-17.83,-17.21,0,*78
1498276825.66,58413,17.44,73946.0,6.67,-17.93,-17.41,0,*7E
1498276826.89,58414,17.44,73954.0,6.67,-18.25,-17.63,0,*7B
1498276828.14,58415,17.44,73938.8,6.67,-18.35,-17.63,0,*7B
1498276829.4,58416,17.44,73918.5,6.67,-18.35,-17.79,0,*73
1498276830.61,58417,17.44,73940.0,6.67,-18.45,-17.83,0,*70
1498276831.81,58418,17.44,73964.0,6.67,-18.45,-17.69,0,*7B
1498276833.04,58419,17.44,73952.8,6.65,-18.45,-17.69,0,*78
1498276834.27,58420,17.5,73962.5,6.63,-18.41,-17.59,0,*73
1498276835.5,58421,17.44,73958.5,6.63,-18.17,-17.55,0,*7D
1498276836.7,58422,17.44,73950.8,6.63,-18.11,-17.35,0,*7E
1498276837.93,58423,17.44,73948.5,6.63,-18.25,-17.41,0,*7B
1498276839.16,58424,17.44,73940.0,6.63,-18.17,-17.41,0,*7D
1498276840.39,58425,17.44,73926.5,6.63,-17.87,-17.07,0,*78
1498276841.62,58426,17.44,73926.8,6.63,-18.11,-17.21,0,*7F
1498276842.85,58427,17.44,73936.5,6.65,-18.25,-17.35,0,*7A
1498276844.06,58428,17.44,73942.3,6.63,-18.41,-17.35,0,*71
1498276845.28,58429,17.44,73948.0,6.63,-18.25,-17.21,0,*77
1498276846.54,58430,17.44,73942.0,6.63,-17.41,-16.23,0,*71
1498276847.79,58431,17.44,73946.0,6.65,-17.35,-16.23,0,*75
1498276849.02,58432,17.5,73962.8,6.63,-17.59,-16.37,0,*7F
1498276850.25,58433,17.44,73938.3,6.67,-17.21,-16.03,0,*72
1498276851.49,58434,17.44,73942.0,6.67,-17.63,-16.31,0,*72
1498276852.73,58435,17.44,73938.3,6.67,-17.83,-16.65,0,*7C
1498276853.93,58436,17.44,73934.5,6.67,-18.07,-16.89,0,*7E
1498276855.13,58437,17.44,73934.3,6.67,-18.11,-16.79,0,*77
1498276856.33,58438,17.44,73930.5,6.67,-18.11,-16.93,0,*7C
1498276857.53,58439,17.44,73924.3,6.67,-18.21,-16.93,0,*7E
1498276858.76,58440,17.44,73940.8,6.69,-18.21,-16.97,0,*7A
1498276859.98,58441,17.44,73914.0,6.65,-18.49,-16.97,0,*79
1498276861.24,58442,17.44,73924.8,6.65,-18.49,-17.07,0,*72
1498276862.44,58443,17.44,73938.8,6.63,-18.49,-16.83,0,*78
1498276863.65,58444,17.44,73944.8,6.67,-18.25,-16.59,0,*76
1498276864.88,58445,17.44,73948.5,6.67,-18.07,-16.27,0,*7E
1498276866.15,58446,17.5,73950.5,6.65,-17.11,-15.35,0,*77
1498276867.41,58447,17.44,73952.3,6.65,-17.07,-15.15,0,*73
1498276868.66,58448,17.44,73952.8,6.65,-16.65,-14.89,0,*7D
1498276869.86,58449,17.44,73952.0,6.71,-16.45,-14.69,0,*75
1498276871.09,58450,17.44,73950.8,6.69,-16.75,-14.69,0,*77
1498276872.34,58451,17.44,73946.5,6.69,-16.83,-14.93,0,*7A
1498276873.59,58452,17.44,73948.8,6.71,-17.17,-15.21,0,*74
1498276874.85,58453,17.44,73948.8,6.73,-17.21,-15.15,0,*75
1498276876.12,58454,17.44,73950.5,6.73,-17.11,-15.01,0,*74
1498276877.34,58455,17.44,73954.3,6.73,-16.93,-14.65,0,*7D
1498276878.57,58456,17.44,73948.0,6.73,-16.55,-14.29,0,*7C
1498276879.8,58457,17.44,73956.3,6.73,-16.55,-14.29,0,*7D
1498276881.03,58458,17.44,73956.5,6.75,-16.65,-14.29,0,*77
1498276882.24,58459,17.44,73956.5,6.79,-16.79,-14.43,0,*7B
1498276883.46,58460,17.44,73958.3,6.79,-16.93,-14.47,0,*71
1498276884.69,58461,17.44,73952.5,6.81,-16.89,-14.23,0,*7E
1498276885.91,58462,17.44,73952.3,6.81,-16.83,-14.19,0,*7E
1498276887.1,58463,17.44,73952.0,6.83,-16.59,-13.93,0,*7F
1498276888.32,58464,17.44,73958.8,6.81,-16.59,-13.93,0,*7A
1498276889.54,58465,17.44,73956.0,6.81,-16.89,-14.19,0,*73
1498276890.76,58466,17.44,73954.3,6.83,-17.03,-14.19,0,*71
1498276892.01,58467,17.44,73956.3,6.87,-17.11,-14.19,0,*77
1498276893.26,58468,17.44,73956.3,6.87,-17.25,-14.33,0,*77
1498276894.49,58469,17.44,73952.0,6.87,-17.31,-14.29,0,*78
1498276895.77,58470,17.44,73958.8,6.87,-17.17,-14.01,0,*7E
1498276897.04,58471,17.44,73956.3,6.87,-17.07,-13.79,0,*76
1498276898.29,58472,17.44,73962.8,6.87,-16.65,-13.43,0,*79
1498276899.57,58473,17.44,73958.8,6.87,-16.69,-13.33,0,*73
1498276900.8,58474,17.44,73956.5,6.89,-16.59,-13.33,0,*79
1498276902.02,58475,17.44,73950.0,6.91,-16.97,-13.51,0,*77
1498276903.25,58476,17.5,73956.8,6.91,-16.97,-13.43,0,*77
1498276904.5,58477,17.44,73954.8,6.91,-17.07,-13.51,0,*7D
1498276905.76,58478,17.44,73948.0,6.91,-17.17,-13.43,0,*70
1498276906.98,58479,17.44,73952.8,6.93,-17.45,-13.65,0,*70
1498276908.18,58480,17.44,73952.3,6.93,-17.87,-13.93,0,*71
1498276909.4,58481,17.44,73952.8,6.93,-18.07,-14.05,0,*7F
1498276910.63,58482,17.44,73948.0,6.95,-18.07,-14.15,0,*7B
1498276911.83,58483,17.44,73950.5,6.93,-18.41,-14.29,0,*71
1498276913.03,58484,17.44,73952.8,6.93,-18.49,-14.29,0,*7E
1498276914.23,58485,17.44,73952.0,6.93,-18.41,-14.19,0,*74
1498276915.43,58486,17.44,73952.0,6.89,-18.45,-14.15,0,*74
1498276916.71,58487,17.44,73952.3,6.91,-18.35,-14.05,0,*7A
1498276917.93,58488,17.44,73956.5,6.89,-18.55,-14.11,0,*7F
1498276919.16,58489,17.44,73940.3,6.91,-18.69,-14.11,0,*78
1498276920.37,58490,17.44,73946.8,6.89,-18.73,-14.23,0,*73
1498276921.59,58491,17.44,73942.8,6.89,-19.07,-14.43,0,*76
1498276922.81,58492,17.44,73948.8,6.91,-18.83,-14.11,0,*76
1498276924.05,58493,17.44,73952.5,6.87,-18.89,-13.93,0,*77
1498276925.34,58494,17.44,73954.3,6.87,-18.93,-14.01,0,*77
1498276926.57,58495,17.5,73950.5,6.85,-19.13,-14.05,0,*79
1498276927.85,58496,17.44,73946.0,6.87,-19.23,-14.05,0,*7B
1498276929.08,58497,17.44,73940.5,6.85,-19.23,-14.15,0,*79
1498276930.28,58498,17.44,73938.5,6.85,-19.37,-14.19,0,*7F
1498276931.5,58499,17.44,73944.5,6.83,-18.93,-13.69,0,*77
1498276932.71,58500,17.5,73948.5,6.83,-18.69,-13.55,0,*7C
1498276933.98,58501,17.44,73948.0,6.81,-18.55,-13.37,0,*74
1498276935.23,58502,17.44,73950.0,6.81,-18.55,-13.19,0,*7B
1498276936.48,58503,17.44,73952.3,6.81,-18.35,-12.97,0,*7B
1498276937.72,58504,17.44,73950.0,6.81,-18.07,-12.57,0,*71
1498276938.97,58505,17.44,73954.3,6.81,-17.93,-12.47,0,*73
1498276940.2,58506,17.44,73948.8,6.83,-17.93,-12.47,0,*72
1498276941.4,58507,17.44,73950.0,6.83,-17.73,-12.21,0,*7D
1498276942.6,58508,17.44,73946.0,6.83,-17.73,-12.25,0,*76
1498276943.82,58509,17.44,73950.3,6.81,-17.87,-12.39,0,*73
1498276945.05,58510,17.44,73944.5,6.83,-17.93,-12.39,0,*7C
1498276946.29,58511,17.44,73948.5,6.81,-18.01,-12.47,0,*72
1498276947.53,58512,17.44,73952.5,6.83,-18.07,-12.53,0,*70
1498276948.78,58513,17.44,73948.8,6.81,-17.87,-12.35,0,*74
1498276950.0,58514,17.44,73950.8,6.83,-17.79,-12.25,0,*71
1498276951.22,58515,17.44,73954.5,6.81,-17.87,-12.25,0,*73
1498276952.47,58516,17.44,73958.8,6.81,-17.93,-12.47,0,*71
1498276953.72,58517,17.44,73960.8,6.81,-18.01,-12.47,0,*74
1498276954.94,58518,17.44,73962.8,6.83,-17.63,-12.21,0,*72
1498276956.21,58519,17.44,73964.0,6.81,-17.63,-12.07,0,*75
1498276957.48,58520,17.44,73972.5,6.81,-17.17,-11.81,0,*71
1498276958.73,58521,17.44,73966.3,6.81,-16.75,-11.37,0,*78
1498276960.0,58522,17.44,73938.3,6.81,-17.03,-11.85,0,*72
1498276961.23,58523,17.44,73932.8,6.83,-16.97,-11.63,0,*75
1498276962.48,58524,17.44,73936.3,6.83,-17.03,-11.81,0,*72
1498276963.73,58525,17.44,73934.0,6.83,-17.21,-11.97,0,*74
1498276964.96,58526,17.44,73938.0,6.83,-17.35,-11.97,0,*72
1498276966.18,58527,17.44,73942.0,6.83,-17.31,-12.11,0,*7A
1498276967.4,58528,17.44,73940.8,6.83,-17.31,-12.11,0,*75
1498276968.63,58529,17.44,73938.0,6.83,-17.59,-12.39,0,*70
1498276969.85,58530,17.44,73926.3,6.81,-17.49,-12.39,0,*7B
1498276971.08,58531,17.44,73924.3,6.83,-17.45,-12.39,0,*74
1498276972.34,58532,17.44,73926.5,6.83,-17.59,-12.53,0,*76
1498276973.59,58533,17.44,73934.3,6.81,-17.73,-12.71,0,*7D
1498276974.84,58534,17.44,73954.3,6.83,-17.63,-12.71,0,*79
1498276976.08,58535,17.44,73956.5,6.81,-17.63,-12.93,0,*76
1498276977.31,58536,17.44,73958.0,6.81,-18.41,-13.55,0,*71
1498276978.58,58537,17.44,73956.8,6.81,-18.01,-13.33,0,*74
1498276979.82,58538,17.44,73956.3,6.75,-17.59,-13.01,0,*73
1498276981.05,58539,17.44,73944.5,6.79,-17.35,-12.75,0,*76
1498276982.3,58540,17.44,73940.3,6.75,-17.11,-12.61,0,*77
1498276983.5,58541,17.44,73942.0,6.79,-16.75,-12.25,0,*79
1498276984.75,58542,17.44,73938.3,6.81,-16.55,-12.07,0,*7F
1498276985.97,58543,17.44,73938.0,6.79,-16.03,-11.89,0,*7F
1498276987.16,58544,17.44,73932.5,6.79,-15.71,-11.45,0,*7E
1498276988.43,58545,17.44,73934.0,6.81,-15.57,-11.51,0,*79
1498276989.66,58546,17.44,73932.5,6.83,-15.67,-11.67,0,*7E
1498276990.91,58547,17.44,73940.5,6.83,-15.81,-11.73,0,*72
1498276992.16,58548,17.44,73938.8,6.83,-16.09,-12.11,0,*79
1498276993.39,58549,17.44,73940.3,6.83,-15.95,-12.07,0,*79
1498276994.64,58550,17.44,73930.8,6.85,-15.81,-12.07,0,*72
1498276995.87,58551,17.44,73930.3,6.85,-16.09,-12.29,0,*7C
1498276997.12,58552,17.44,73930.8,6.85,-16.17,-12.53,0,*7D
1498276998.37,58553,17.44,73932.5,6.85,-16.17,-12.65,0,*79
1498276999.62,58554,17.44,73930.8,6.85,-16.27,-12.79,0,*70
1498277000.87,58555,17.44,73932.0,6.87,-16.51,-13.07,0,*7A
1498277002.09,58556,17.44,73932.0,6.85,-16.69,-13.43,0,*70
1498277003.32,58557,17.44,73932.0,6.85,-16.79,-13.61,0,*70
1498277004.57,58558,17.44,73932.0,6.85,-16.69,-13.61,0,*7E
1498277005.82,58559,17.44,73936.5,6.85,-16.69,-13.61,0,*7F
1498277007.04,58560,17.44,73936.0,6.85,-16.69,-13.65,0,*71
1498277008.24,58561,17.44,73932.5,6.85,-16.79,-13.73,0,*76
1498277009.43,58562,17.44,73944.0,6.85,-16.83,-13.73,0,*70
1498277010.66,58563,17.44,73942.3,6.85,-16.79,-14.01,0,*76
1498277011.89,58564,17.44,73940.8,6.85,-16.79,-14.01,0,*71
1498277013.12,58565,17.44,73942.5,6.85,-16.83,-14.05,0,*71
1498277014.34,58566,17.44,73938.5,6.85,-16.79,-14.05,0,*77
1498277015.57,58567,17.44,73932.5,6.83,-16.89,-14.05,0,*7F
1498277016.79,58568,17.44,73936.3,6.83,-16.69,-14.19,0,*73
1498277018.01,58569,17.44,73938.5,6.81,-16.75,-14.11,0,*75
1498277019.21,58570,17.44,73940.8,6.83,-16.75,-14.33,0,*7F
1498277020.44,58571,17.44,73942.5,6.83,-16.89,-14.51,0,*79
1498277021.67,58572,17.44,73944.3,6.83,-16.89,-14.51,0,*7A
1498277022.87,58573,17.44,73948.3,6.83,-16.75,-14.37,0,*78
1498277024.12,58574,17.44,73948.5,6.83,-16.31,-13.97,0,*72
1498277025.34,58575,17.44,73952.8,6.83,-16.23,-13.93,0,*74
1498277026.56,58576,17.44,73948.3,6.83,-16.83,-14.43,0,*77
1498277027.78,58577,17.44,73948.3,6.85,-16.93,-14.75,0,*74
1498277029.02,58578,17.44,73944.5,6.85,-17.11,-15.01,0,*72
1498277030.25,58579,17.44,73954.3,6.83,-17.35,-15.21,0,*71
1498277031.5,58580,17.44,73946.3,6.83,-17.11,-14.93,0,*79
1498277032.75,58581,17.44,73924.8,6.83,-17.21,-15.35,0,*76
1498277034.01,58582,17.44,73906.0,6.81,-17.49,-15.43,0,*78
1498277035.25,58583,17.44,73914.8,6.81,-17.59,-15.67,0,*7E
1498277036.49,58584,17.44,73920.5,6.81,-17.63,-15.71,0,*77
1498277037.77,58585,17.44,73920.5,6.81,-17.63,-15.81,0,*79
1498277038.99,58586,17.44,73918.3,6.83,-17.79,-15.95,0,*76
1498277040.24,58587,17.44,73914.5,6.83,-17.63,-15.85,0,*7D
1498277041.49,58588,17.44,73930.3,6.83,-17.63,-15.81,0,*76
1498277042.73,58589,17.44,73948.8,6.81,-17.63,-15.99,0,*7C
1498277043.97,58590,17.44,73950.0,6.81,-18.01,-16.45,0,*7D
1498277045.19,58591,17.44,73946.8,6.79,-18.11,-16.51,0,*7F
1498277046.41,58592,17.44,73948.8,6.79,-17.69,-16.17,0,*7E
1498277047.64,58593,17.5,73952.8,6.75,-17.41,-15.95,0,*70
1498277048.9,58594,17.44,73952.3,6.75,-17.25,-15.89,0,*78
1498277050.13,58595,17.44,73954.8,6.75,-17.07,-15.75,0,*7A
1498277051.33,58596,17.44,73944.3,6.75,-16.93,-15.53,0,*71
1498277052.54,58597,17.44,73946.0,6.75,-16.93,-15.53,0,*70
1498277053.75,58598,17.44,73948.5,6.75,-16.79,-15.53,0,*7B
1498277055.0,58599,17.44,73952.5,6.81,-16.55,-15.43,0,*7E
1498277056.23,58600,17.44,73954.8,6.79,-16.69,-15.75,0,*70
1498277057.48,58601,17.44,73952.5,6.81,-16.75,-15.81,0,*70
1498277058.69,58602,17.44,73952.8,6.83,-16.75,-15.71,0,*7E
1498277059.94,58603,17.44,73942.0,6.81,-16.55,-15.57,0,*7B
1498277061.14,58604,17.44,73944.3,6.83,-16.55,-15.67,0,*7D
1498277062.42,58605,17.44,73940.0,6.81,-16.69,-15.85,0,*7D
1498277063.62,58606,17.44,73946.5,6.83,-16.75,-15.99,0,*7C
1498277064.84,58607,17.44,73944.5,6.83,-16.89,-16.23,0,*7C
1498277066.08,58608,17.44,73932.8,6.83,-17.17,-16.59,0,*78
1498277067.3,58609,17.44,73942.5,6.81,-17.31,-16.83,0,*78
1498277068.57,58610,17.44,73954.8,6.81,-17.45,-17.11,0,*79
1498277069.8,58611,17.44,73950.5,6.83,-17.21,-16.89,0,*78
1498277071.04,58612,17.44,73944.0,6.81,-17.21,-16.89,0,*79
1498277072.3,58613,17.44,73946.3,6.83,-17.21,-17.03,0,*79
1498277073.57,58614,17.44,73946.8,6.81,-17.21,-17.11,0,*7F
1498277074.82,58615,17.44,73944.0,6.79,-17.25,-17.11,0,*7D
1498277076.07,58616,17.44,73950.3,6.79,-17.21,-17.07,0,*7D
1498277077.33,58617,17.44,73956.3,6.79,-17.17,-17.07,0,*79
1498277078.56,58618,17.44,73948.5,6.75,-17.21,-17.31,0,*7A
1498277079.8,58619,17.44,73954.3,6.81,-17.11,-17.31,0,*73
1498277081.03,58620,17.44,73952.8,6.79,-17.17,-17.35,0,*7C
1498277082.28,58621,17.44,73962.5,6.79,-17.17,-17.41,0,*7E
1498277083.51,58622,17.44,73952.5,6.75,-17.07,-17.35,0,*73
1498277084.73,58623,17.44,73930.3,6.79,-17.07,-17.49,0,*75
1498277085.95,58624,17.44,73932.3,6.79,-17.21,-17.69,0,*74
1498277087.19,58625,17.44,73938.5,6.75,-17.41,-17.83,0,*7B
1498277088.43,58626,17.44,73950.8,6.75,-17.41,-17.83,0,*78
1498277089.65,58627,17.44,73950.8,6.79,-17.35,-17.97,0,*73
1498277090.91,58628,17.5,73952.3,6.75,-17.41,-18.01,0,*73
1498277092.16,58629,17.44,73932.5,6.75,-17.25,-18.01,0,*70
1498277093.39,58630,17.44,73944.3,6.79,-17.21,-18.07,0,*76
1498277094.58,58631,17.44,73942.5,6.75,-17.31,-18.17,0,*7B
1498277095.84,58632,17.44,73958.8,6.75,-17.55,-18.31,0,*7E
1498277097.08,58633,17.44,73972.8,6.73,-17.55,-18.25,0,*7C
1498277098.33,58634,17.44,73960.5,6.75,-17.55,-18.31,0,*78
1498277099.55,58635,17.44,73958.5,6.75,-17.25,-18.25,0,*7B
1498277100.8,58636,17.44,73958.5,6.73,-17.25,-18.25,0,*7E
1498277102.05,58637,17.5,73964.0,6.71,-17.25,-18.31,0,*78
1498277103.3,58638,17.44,73956.3,6.73,-17.25,-18.25,0,*70
1498277104.54,58639,17.44,73962.0,6.73,-17.21,-18.25,0,*75
1498277105.78,58640,17.44,73962.5,6.73,-17.11,-18.25,0,*78
1498277107.06,58641,17.44,73966.3,6.73,-17.25,-18.31,0,*7B
1498277108.31,58642,17.44,73966.8,6.73,-17.07,-18.25,0,*7D
1498277109.53,58643,17.44,73966.3,6.71,-16.75,-17.93,0,*78
1498277110.76,58644,17.44,73962.5,6.71,-16.37,-17.45,0,*72
1498277112.0,58645,17.44,73948.8,6.73,-15.81,-16.93,0,*75
1498277113.23,58646,17.44,73956.8,6.75,-15.43,-16.55,0,*74
1498277114.44,58647,17.44,73966.0,6.79,-15.99,-17.17,0,*79
1498277115.63,58648,17.44,73944.8,6.79,-16.93,-18.21,0,*75
1498277116.83,58649,17.44,73934.5,6.79,-16.75,-18.07,0,*78
1498277118.07,58650,17.44,73912.5,6.81,-17.31,-18.55,0,*71
1498277119.28,58651,17.44,73954.0,6.79,-17.55,-18.83,0,*7E
1498277120.49,58652,17.44,73950.5,6.79,-17.63,-18.99,0,*73
1498277121.68,58653,17.44,73952.0,6.79,-17.69,-18.99,0,*78
1498277122.87,58654,17.44,73954.8,6.75,-17.73,-19.03,0,*7A
1498277124.07,58655,17.44,73956.0,6.75,-17.73,-19.03,0,*7B
1498277125.26,58656,17.44,73958.3,6.75,-17.73,-19.03,0,*78
1498277126.45,58657,17.44,73958.5,6.75,-17.69,-19.03,0,*72
1498277127.65,58658,17.44,73962.3,6.75,-17.69,-19.03,0,*7D
1498277128.86,58659,17.44,73966.5,6.79,-17.55,-18.99,0,*7D
1498277130.08,58660,17.44,73962.3,6.75,-17.69,-18.93,0,*7E
1498277131.33,58661,17.44,73954.0,6.75,-17.59,-18.89,0,*77
1498277132.55,58662,17.44,73946.5,6.75,-17.59,-18.79,0,*7B
1498277133.78,58663,17.44,73952.8,6.75,-17.41,-18.73,0,*79
1498277135.03,58664,17.44,73952.3,6.75,-17.41,-18.59,0,*76
1498277136.26,58665,17.44,73958.5,6.75,-17.45,-18.65,0,*7C
1498277137.49,58666,17.44,73958.0,6.75,-17.41,-18.65,0,*7B
1498277138.74,58667,17.44,73958.8,6.75,-17.11,-18.31,0,*7E
1498277139.96,58668,17.44,73952.3,6.79,-17.03,-18.25,0,*7B
1498277141.15,58669,17.44,73952.8,6.79,-16.89,-18.21,0,*7D
1498277142.37,58670,17.44,73958.0,6.79,-16.65,-17.69,0,*74
1498277143.56,58671,17.44,73958.3,6.79,-16.97,-18.25,0,*7F
1498277144.78,58672,17.44,73960.3,6.79,-17.07,-18.21,0,*70
1498277146.01,58673,17.44,73962.8,6.81,-16.75,-17.87,0,*71
1498277147.23,58674,17.44,73960.5,6.83,-16.75,-17.93,0,*71
1498277148.48,58675,17.44,73962.5,6.81,-16.83,-18.01,0,*7F
1498277149.7,58676,17.44,73962.3,6.83,-17.03,-18.17,0,*70
1498277150.93,58677,17.44,73966.0,6.83,-17.11,-18.21,0,*77
1498277152.15,58678,17.44,73960.0,6.83,-17.03,-18.17,0,*7E
1498277153.35,58679,17.44,73966.3,6.83,-16.97,-18.17,0,*73
1498277154.54,58680,17.44,73974.3,6.85,-16.79,-17.73,0,*7E
1498277155.8,58681,17.44,73978.3,6.87,-16.97,-18.01,0,*77
1498277157.08,58682,17.44,73968.8,6.87,-17.25,-18.31,0,*7F
1498277158.31,58683,17.44,73966.5,6.89,-16.89,-17.97,0,*74
1498277159.54,58684,17.44,73944.3,6.89,-16.89,-17.97,0,*73
1498277160.78,58685,17.44,73938.0,6.89,-17.55,-18.59,0,*7F
1498277162.01,58686,17.44,73924.0,6.89,-17.55,-18.45,0,*71
1498277163.2,58687,17.44,73950.5,6.89,-18.11,-18.99,0,*7E
1498277164.43,58688,17.44,73950.0,6.87,-18.21,-19.13,0,*7F
1498277165.66,58689,17.44,73938.3,6.87,-18.21,-19.13,0,*7E
1498277166.91,58690,17.44,73924.0,6.87,-18.31,-19.13,0,*77
1498277168.17,58691,17.44,73928.8,6.87,-18.31,-19.13,0,*76
1498277169.43,58692,17.44,73922.8,6.87,-18.35,-19.37,0,*77
1498277170.63,58693,17.44,73934.8,6.85,-18.49,-19.37,0,*7F
1498277171.85,58694,17.44,73944.0,6.87,-18.65,-19.51,0,*74
1498277173.05,58695,17.44,73956.5,6.85,-18.65,-19.51,0,*77
1498277174.25,58696,17.44,73966.0,6.85,-18.79,-19.51,0,*79
1498277175.48,58697,17.44,73970.5,6.83,-18.79,-19.41,0,*7F
1498277176.72,58698,17.44,73958.8,6.85,-18.59,-19.23,0,*70
1498277177.94,58699,17.44,73948.3,6.87,-18.45,-19.07,0,*78
1498277179.14,58700,17.44,73956.3,6.83,-18.41,-19.13,0,*7C
1498277180.34,58701,17.44,73966.8,6.83,-18.49,-19.17,0,*71
1498277181.57,58702,17.44,73976.8,6.83,-18.55,-19.13,0,*7B
1498277182.8,58703,17.44,73970.3,6.83,-18.55,-19.13,0,*7A
1498277184.0,58704,17.44,73966.3,6.83,-18.65,-19.17,0,*7A
1498277185.2,58705,17.44,73978.0,6.83,-18.41,-18.99,0,*7A
1498277186.39,58706,17.44,73968.0,6.83,-17.73,-18.41,0,*72
1498277187.61,58707,17.44,73962.8,6.81,-18.07,-18.65,0,*7B
1498277188.83,58708,17.44,73964.8,6.81,-18.17,-18.79,0,*78
1498277190.05,58709,17.44,73966.8,6.81,-18.17,-18.69,0,*78
1498277191.26,58710,17.44,73968.3,6.81,-18.21,-18.79,0,*74
1498277192.48,58711,17.44,73966.8,6.81,-18.21,-18.65,0,*78
1498277193.71,58712,17.44,73960.5,6.83,-18.07,-18.55,0,*7E
1498277194.9,58713,17.44,73964.8,6.83,-17.87,-18.25,0,*7F
1498277196.13,58714,17.44,73962.5,6.83,-17.59,-18.07,0,*7B
1498277197.36,58715,17.44,73964.0,6.83,-17.45,-17.87,0,*70
1498277198.57,58716,17.44,73968.8,6.83,-16.55,-16.97,0,*73
1498277199.82,58717,17.44,73964.3,6.85,-16.27,-16.65,0,*7C
1498277201.07,58718,17.44,73962.5,6.87,-16.41,-16.69,0,*7D
1498277202.29,58719,17.44,73966.3,6.89,-16.93,-17.25,0,*74
1498277203.53,58720,17.44,73964.5,6.89,-17.55,-17.83,0,*79
1498277204.78,58721,17.44,73964.0,6.89,-17.07,-17.25,0,*73
1498277206.03,58722,17.44,73970.8,6.91,-16.69,-16.97,0,*78
1498277207.29,58723,17.44,73964.5,6.91,-16.89,-17.07,0,*7F
1498277208.49,58724,17.44,73962.0,6.89,-16.79,-16.93,0,*72
1498277209.69,58725,17.44,73960.8,6.93,-16.75,-16.89,0,*7F
1498277210.89,58726,17.44,73960.3,6.93,-16.75,-16.89,0,*7C
1498277212.17,58727,17.44,73962.3,6.95,-17.17,-17.25,0,*79
1498277213.41,58728,17.44,73962.5,6.95,-17.25,-17.31,0,*72
1498277214.69,58729,17.44,73956.0,6.95,-17.25,-17.11,0,*71
1498277215.93,58730,17.44,73956.5,6.97,-17.25,-17.17,0,*7D
1498277217.21,58731,17.44,73956.8,6.99,-17.25,-17.11,0,*74
1498277218.44,58732,17.44,73958.0,6.97,-17.31,-17.07,0,*7B
1498277219.72,58733,17.44,73960.5,6.99,-17.41,-17.11,0,*74
1498277221.0,58734,17.44,73962.3,6.99,-17.41,-17.11,0,*73
1498277222.25,58735,17.44,73962.0,6.97,-17.25,-17.03,0,*7D
1498277223.51,58736,17.44,73956.8,7.03,-17.35,-17.07,0,*77
1498277224.74,58737,17.44,73956.0,7.05,-17.49,-17.17,0,*7A
1498277225.96,58738,17.44,73962.5,7.05,-17.79,-17.35,0,*76
1498277227.23,58739,17.44,73958.3,7.03,-17.63,-17.17,0,*7A
1498277228.44,58740,17.44,73962.3,7.05,-17.35,-16.83,0,*7D
1498277229.64,58741,17.44,73964.5,7.05,-17.35,-16.83,0,*7C
1498277230.89,58742,17.44,73974.0,7.03,-17.59,-16.93,0,*72
1498277232.11,58743,17.44,73968.0,7.05,-17.59,-16.89,0,*7E
1498277233.3,58744,17.44,73964.5,7.05,-17.73,-16.93,0,*7A
1498277234.55,58745,17.44,73968.3,7.05,-17.97,-17.21,0,*79
1498277235.83,58746,17.44,73952.3,7.07,-18.01,-17.03,0,*78
1498277237.11,58747,17.44,73964.8,7.07,-17.93,-17.03,0,*7D
1498277238.39,58748,17.44,73952.8,7.07,-18.31,-17.55,0,*76
1498277239.62,58749,17.44,73962.3,7.07,-19.13,-18.21,0,*7A
1498277240.85,58750,17.44,73954.8,7.05,-19.31,-18.49,0,*7E
1498277242.07,58751,17.44,73960.0,7.05,-20.09,-19.27,0,*77
1498277243.32,58752,17.44,73958.0,7.03,-20.19,-19.13,0,*74
1498277244.56,58753,17.44,73962.5,6.99,-19.99,-18.89,0,*77
1498277245.78,58754,17.44,73952.3,6.99,-20.25,-19.07,0,*7A
1498277247.02,58755,17.44,73956.5,6.97,-20.15,-18.93,0,*7A
1498277248.24,58756,17.44,73956.8,6.95,-19.95,-18.65,0,*70
1498277249.47,58757,17.44,73956.5,6.93,-19.61,-18.41,0,*7A
1498277250.7,58758,17.44,73964.3,6.93,-19.31,-18.11,0,*75
1498277251.9,58759,17.44,73974.3,6.93,-19.99,-18.79,0,*78
1498277253.11,58760,17.44,73982.8,6.93,-20.09,-18.93,0,*75
1498277254.4,58761,17.44,73928.0,6.91,-19.31,-18.01,0,*7C
1498277255.59,58762,17.44,73920.0,6.89,-19.75,-18.25,0,*70
1498277256.82,58763,17.44,73906.3,6.91,-19.71,-18.25,0,*7C
1498277258.1,58764,17.44,73908.5,6.91,-19.31,-18.01,0,*79
1498277259.34,58765,17.44,73926.0,6.89,-19.23,-17.83,0,*77
1498277260.6,58766,17.44,73956.0,6.89,-19.31,-17.79,0,*72
1498277261.83,58767,17.44,73932.8,6.93,-19.13,-17.63,0,*73
1498277263.08,58768,17.44,73952.3,6.89,-19.31,-17.79,0,*7C
1498277264.34,58769,17.44,73948.8,6.89,-19.31,-17.79,0,*7D
1498277265.62,58770,17.44,73962.0,6.91,-19.31,-17.63,0,*77
1498277266.85,58771,17.44,73970.5,6.89,-19.37,-17.79,0,*72
1498277268.09,58772,17.44,73966.8,6.89,-19.37,-17.63,0,*7A
1498277269.34,58773,17.44,73970.0,6.87,-19.03,-17.25,0,*70
1498277270.61,58774,17.44,73964.3,6.87,-18.89,-17.11,0,*73
1498277271.86,58775,17.44,73966.8,6.87,-18.49,-16.69,0,*70
1498277273.11,58776,17.44,73962.8,6.87,-18.35,-16.41,0,*72
1498277274.39,58777,17.44,73962.5,6.87,-18.31,-16.23,0,*73
1498277275.65,58778,17.44,73962.5,6.89,-17.97,-15.89,0,*72
1498277276.88,58779,17.44,73964.3,6.89,-18.11,-16.13,0,*72
1498277278.16,58780,17.44,73976.5,6.91,-18.01,-15.85,0,*70
1498277279.36,58781,17.44,73966.5,6.89,-18.07,-15.99,0,*73
1498277280.59,58782,17.44,73962.5,6.91,-18.11,-15.99,0,*7E
1498277281.79,58783,17.44,73950.5,6.89,-18.41,-16.37,0,*74
1498277283.03,58784,17.44,73950.0,6.91,-18.65,-16.41,0,*7D
1498277284.28,58785,17.44,73950.8,6.91,-18.41,-16.27,0,*7A
1498277285.56,58786,17.44,73952.8,6.91,-18.35,-16.13,0,*7D
1498277286.8,58787,17.44,73958.5,6.91,-18.21,-15.95,0,*74
1498277288.03,58788,17.44,73956.5,6.91,-18.25,-15.95,0,*7F
1498277289.28,58789,17.44,73962.5,6.93,-18.01,-15.57,0,*74
1498277290.51,58790,17.44,73956.0,6.93,-18.07,-15.57,0,*7A
1498277291.73,58791,17.44,73958.0,6.95,-18.17,-15.67,0,*7F
1498277292.93,58792,17.44,73956.3,6.97,-18.21,-15.75,0,*78
1498277294.18,58793,17.44,73960.3,6.95,-18.01,-15.53,0,*7D
1498277295.4,58794,17.44,73962.3,6.95,-18.21,-15.67,0,*7F
1498277296.6,58795,17.44,73954.8,6.97,-18.21,-15.63,0,*78
1498277297.87,58796,17.44,73950.0,6.99,-17.79,-15.21,0,*71
1498277299.12,58797,17.44,73952.5,6.97,-17.97,-15.35,0,*7B
1498277300.38,58798,17.44,73956.3,6.97,-17.97,-15.39,0,*78
1498277301.58,58799,17.44,73946.8,6.97,-17.83,-15.15,0,*72